Location: Morisset
(33.1080°S, 151.4871°E)
Time: 09:09:02
(UTC+00:00)

Meteor 2-10 - Pass Details

Date: 29 October 2020
Orbit: 738 x 868 km, 81.2° (Epoch: 27 November)

Event Time Altitude Azimuth Distance (km) Brightness Sun altitude
Rises 17:48:28 0° 355° (N) 3,396 7.0 -14.1°
Reaches altitude 10° 17:50:51 10° 356° (N) 2,481 6.3 -13.6°
Maximum altitude 17:56:31 85° 82° (E) 881 4.3 -12.6°
Drops below altitude 10° 18:02:20 10° 171° (S) 2,541 7.2 -11.5°
Sets 18:04:48 0° 171° (S) 3,483 7.9 -11.0°
